Lexington Weather

Lexington, Massachusetts, USA

57°F
6/23/2021 2:05am 
  • Lexington Conditions: Partly cloudy
  • Temperature: 56.5°F / 13.6°CColder 2.1°F than last hour.
  • Dew Point: 54.5°FDecreased 2.7°Fsince last hour.
  • Relative Humidity: 93%Decreased 2.0% since last hour.
  • Wind: Calm, 10-min avg: Calm, gust: None
  • Barometer: 29.83 inRising 0.02  inHg/hr Rising Slowly
  • Visibility: 10 miles
  • Rain Today: 0.00 in
  •   

Regional Weather Roundup
for Boston / Norton, MA

        
000
ASUS41 KBOX 161304
RWRBOX

REGIONAL WEATHER ROUNDUP
NATIONAL WEATHER SERVICE BOSTON/NORTON MA
900 AM EDT WED JUN 16 2021

NOTE:  "FAIR" INDICATES FEW OR NO CLOUDS BELOW 12,000 FEET WITH NO 
SIGNIFICANT WEATHER AND/OR OBSTRUCTIONS TO VISIBILITY.

MAZALL-161400-
EASTERN MASSACHUSETTS
  
CITY           SKY/WX    TMP DP  RH WIND       PRES   REMARKS
BOSTON         PTSUNNY   68  51  54 N14       29.75S                  
BEVERLY        MOSUNNY   65  55  70 NW12      29.74S                  
LAWRENCE       SUNNY     64  52  64 NW12      29.77S                  
BEDFORD        SUNNY     66  52  60 NW13      29.75S                  
BLUE HILL        N/A     64  51  62 N8G18     29.75R                  
NORWOOD        SUNNY     68  50  52 NW13      29.75S                  
MARSHFIELD     PTSUNNY  -40 N/A N/A NW8       29.74S WCI -63          
PLYMOUTH       CLOUDY    65  52  62 N12G17    29.75R                  
TAUNTON        MOSUNNY   67  52  58 VRB6      29.75S                  
NEW BEDFORD    SUNNY     67  52  58 VRB6      29.75R                  
$$

MAZALL-161400-
CAPE COD AND THE ISLANDS
  
CITY           SKY/WX    TMP DP  RH WIND       PRES   REMARKS
FALMOUTH       SUNNY     64  52  63 N10       29.74R                  
HYANNIS        MOSUNNY   65  54  67 N14G25    29.71R                  
CHATHAM        PTSUNNY   66  57  72 VRB7G17   29.73R                  
PROVINCETOWN   CLOUDY    62  56  80 N12       29.75R                  
NANTUCKET      PTSUNNY   67  58  72 N17       29.72R                  
MARTHAS VNYRD  MOSUNNY   68  55  63 N10G21    29.74R                  
$$
 
MAZALL-161400-
CENTRAL AND WESTERN MASSACHUSETTS
  
CITY           SKY/WX    TMP DP  RH WIND       PRES   REMARKS
WORCESTER      SUNNY     63  47  55 NW13      29.78S                  
FITCHBURG      SUNNY     67  49  52 NW13      29.77F                  
ORANGE         SUNNY     64  47  53 N13       29.81S                  
SPRINGFIELD    MOSUNNY   65  50  58 N8        29.79S                  
WESTFIELD      SUNNY     67  52  58 NW9       29.80S                  
NORTH ADAMS    MOSUNNY   60  47  61 VRB3      29.84S                  
PITTSFIELD     SUNNY     58  46  64 NW9       29.84R                  
$$
 
RIZALL-161400-
RHODE ISLAND
  
CITY           SKY/WX    TMP DP  RH WIND       PRES   REMARKS
PROVIDENCE     MOSUNNY   69  51  52 N13G21    29.77R                  
NEWPORT        SUNNY     66  51  58 N14       29.75S                  
BLOCK ISLAND   SUNNY     66  53  63 N13       29.78R                  
SMITHFIELD     SUNNY     65  54  67 N8        29.77S                  
WESTERLY       SUNNY     65  50  58 N10       29.78R                  
$$
 
CTZALL-161400-
CONNECTICUT
  
CITY           SKY/WX    TMP DP  RH WIND       PRES   REMARKS
BRADLEY INTL   MOSUNNY   67  51  56 NW10G17   29.80S                  
HARTFORD       SUNNY     68  51  54 N10       29.79F                  
BRIDGEPORT     SUNNY     69  53  56 NW14      29.81R                  
DANBURY        SUNNY     67  51  56 N9G18     29.85R                  
GROTON         SUNNY     68  51  54 N12       29.78R                  
NEW HAVEN      SUNNY     70  55  59 NW7       29.80S                  
CHESTER        FAIR      68  52  56 NW7       29.80S                  
MERIDEN        SUNNY     69  51  52 NW10      29.80R                  
WILLIMANTIC    SUNNY     66  50  56 N10G18    29.78S                  
OXFORD         MOSUNNY   63  55  75 N9        29.83S                  
$$

MEZ002-015-021-024-NHZ003-005-008-011-012-014-VTZ005-008-161400-
NORTHERN NEW ENGLAND
  
CITY           SKY/WX    TMP DP  RH WIND       PRES   REMARKS
PORTLAND ME    MOSUNNY   64  51  62 NW9G20    29.73R                  
BANGOR ME      PTSUNNY   63  52  67 NW8       29.67F                  
CONCORD NH     SUNNY     62  49  62 NW13      29.77S                  
MANCHESTER NH  MOSUNNY   65  49  56 NW14      29.75S                  
NASHUA NH      SUNNY     65  51  60 NW14      29.76F                  
PORTSMOUTH NH  MOSUNNY   65  52  64 W8        29.75R                  
JAFFREY NH     SUNNY     62  47  57 N8        29.80R                  
KEENE NH       SUNNY     62  48  60 N13       29.81R                  
BURLINGTON VT  MOSUNNY   60  44  55 N14       29.86R                  
MT. WASHINGTON FOG       32  30  93 NW38G49     N/A  VSB 1/16WCI  16  
$$

NYZ052-076-161400-
EASTERN NEW YORK
  
CITY           SKY/WX    TMP DP  RH WIND       PRES   REMARKS
ALBANY         MOSUNNY   59  47  64 N7        29.87                   
NEW YORK CITY  MOSUNNY   68  51  54 NW8       29.83S                  
$$
 
ANZALL-161400-
MARINE OBSERVATIONS
  
STATION/POSITION TIME  TEMP    WIND        PRES    VSBY  WAVE
                       AIR SEA DIR/SP/G                  HT/PER
                 (UTC) (F)     (DEG/KT/KT) (MB)    (MI)  (FT/S)
BOSTON BUOY      1250   59     320/ 12/ 14 1007.7R
BUZZARDS BAY     1200          350/ 18/ 20 1007.8R
NANTUCKET SOUND  1240      65                N/A
MASS BAY-STELLWA 1204   60     330/ 10/ 12 1006.0R  1 7/8  3/ 8
ISLE OF SHOALS   1200   59     320/ 10/ 12 1006.5R
S OF BLOCK IS    1226      63                N/A           4/ 8
$$

......................KEY.........................
  SKY/WX - SKY CONDITION/PRESENT WEATHER
  TMP    - TEMPERATURE IN FAHRENHEIT
  DWPT   - DEWPOINT IN FAHRENHEIT
  RH     - RELATIVE HUMIDITY IN PERCENT
  WIND   - DIRECTION AND SPEED IN MPH
  PRES   - MEAN SEA LEVEL PRESSURE IN INCHES OF HG
  WCI    - WIND CHILL INDEX
  VSB    - VISIBILITY IN MILES
  HX     - HEAT INDEX
  TC     - TEMPERATURE IN CELSIUS
  VRB    - VARIABLE WIND DIRECTION
  N/A    - NOT AVAILABLE
  
      

Other recent Regional Weather Roundups

Wed Jun 23, 2:04am

Wed Jun 23, 1:05am

Wed Jun 23, 12:04am

Tue Jun 22, 11:04pm

Tue Jun 22, 10:04pm

Tue Jun 22, 9:05pm

Tue Jun 22, 8:04pm

Tue Jun 22, 7:05pm

Tue Jun 22, 6:04pm

Tue Jun 22, 5:04pm

Tue Jun 22, 4:04pm

Tue Jun 22, 3:05pm

Tue Jun 22, 2:05pm

Tue Jun 22, 1:04pm

Tue Jun 22, 12:04pm

Tue Jun 22, 11:04am

Tue Jun 22, 10:04am

Tue Jun 22, 9:04am

Tue Jun 22, 8:05am

Tue Jun 22, 7:04am

Tue Jun 22, 6:04am

Tue Jun 22, 5:04am

Tue Jun 22, 4:04am

Tue Jun 22, 3:04am

Tue Jun 22, 2:04am

Tue Jun 22, 1:04am

Tue Jun 22, 12:04am

Mon Jun 21, 11:04pm

Mon Jun 21, 10:04pm

Mon Jun 21, 9:05pm

Mon Jun 21, 8:04pm

Mon Jun 21, 7:04pm

Mon Jun 21, 6:04pm

Mon Jun 21, 5:04pm

Mon Jun 21, 4:04pm

Mon Jun 21, 3:04pm

Mon Jun 21, 2:04pm

Mon Jun 21, 1:04pm

Mon Jun 21, 12:04pm

Mon Jun 21, 11:04am

Mon Jun 21, 10:04am

Mon Jun 21, 9:04am

Mon Jun 21, 8:04am

Mon Jun 21, 7:04am

Mon Jun 21, 6:04am

Mon Jun 21, 5:04am

Mon Jun 21, 4:04am

Mon Jun 21, 3:04am

Mon Jun 21, 2:04am

Mon Jun 21, 1:04am

Mon Jun 21, 12:04am

Sun Jun 20, 11:04pm

Sun Jun 20, 10:04pm

Sun Jun 20, 9:04pm

Sun Jun 20, 8:04pm

Sun Jun 20, 7:04pm

Sun Jun 20, 6:04pm

Sun Jun 20, 5:04pm

Sun Jun 20, 4:04pm

Sun Jun 20, 3:04pm

Sun Jun 20, 2:04pm

Sun Jun 20, 1:05pm

Sun Jun 20, 12:04pm

Sun Jun 20, 11:04am

Sun Jun 20, 10:04am

Sun Jun 20, 9:04am

Sun Jun 20, 8:04am

Sun Jun 20, 7:04am

Sun Jun 20, 6:04am

Sun Jun 20, 5:04am

Sun Jun 20, 4:04am

Sun Jun 20, 3:04am

Sun Jun 20, 2:04am

Sun Jun 20, 1:04am

Sun Jun 20, 12:05am

Sat Jun 19, 11:04pm

Sat Jun 19, 10:04pm

Sat Jun 19, 9:05pm

Sat Jun 19, 8:04pm

Sat Jun 19, 7:04pm

Sat Jun 19, 6:04pm

Sat Jun 19, 5:04pm

Sat Jun 19, 4:04pm

Sat Jun 19, 3:04pm

Sat Jun 19, 2:04pm

Sat Jun 19, 1:04pm

Sat Jun 19, 12:04pm

Sat Jun 19, 11:04am

Sat Jun 19, 10:04am

Sat Jun 19, 9:04am

Sat Jun 19, 8:04am

Sat Jun 19, 7:04am

Sat Jun 19, 6:04am

Sat Jun 19, 5:04am

Sat Jun 19, 4:04am

Sat Jun 19, 3:04am

Sat Jun 19, 2:04am

Sat Jun 19, 1:04am

Sat Jun 19, 12:04am

Fri Jun 18, 11:05pm

Fri Jun 18, 10:04pm

Fri Jun 18, 9:04pm

Fri Jun 18, 8:04pm

Fri Jun 18, 7:04pm

Fri Jun 18, 6:04pm

Fri Jun 18, 5:04pm

Fri Jun 18, 4:04pm

Fri Jun 18, 3:04pm

Fri Jun 18, 2:04pm

Fri Jun 18, 1:05pm

Fri Jun 18, 12:04pm

Fri Jun 18, 11:04am

Fri Jun 18, 10:05am

Fri Jun 18, 9:04am

Fri Jun 18, 8:04am

Fri Jun 18, 7:04am

Fri Jun 18, 6:04am

Fri Jun 18, 5:04am

Fri Jun 18, 4:04am

Fri Jun 18, 3:04am

Fri Jun 18, 2:04am

Fri Jun 18, 1:04am

Fri Jun 18, 12:04am

Thu Jun 17, 11:04pm

Thu Jun 17, 10:04pm

Thu Jun 17, 9:04pm

Thu Jun 17, 8:04pm

Thu Jun 17, 7:04pm

Thu Jun 17, 6:04pm

Thu Jun 17, 5:04pm

Thu Jun 17, 4:04pm

Thu Jun 17, 3:04pm

Thu Jun 17, 2:04pm

Thu Jun 17, 1:05pm

Thu Jun 17, 12:04pm

Thu Jun 17, 11:04am

Thu Jun 17, 10:05am

Thu Jun 17, 9:04am

Thu Jun 17, 8:04am

Thu Jun 17, 7:04am

Thu Jun 17, 6:04am

Thu Jun 17, 5:04am

Thu Jun 17, 4:04am

Thu Jun 17, 3:04am

Thu Jun 17, 2:04am

Thu Jun 17, 1:04am

Thu Jun 17, 12:04am

Wed Jun 16, 11:04pm

Wed Jun 16, 10:04pm

Wed Jun 16, 9:04pm

Wed Jun 16, 8:04pm

Wed Jun 16, 7:04pm

Wed Jun 16, 6:04pm

Wed Jun 16, 5:04pm

Wed Jun 16, 4:04pm

Wed Jun 16, 3:04pm

Wed Jun 16, 2:04pm

Wed Jun 16, 1:04pm

Wed Jun 16, 12:04pm

Wed Jun 16, 11:04am

Wed Jun 16, 10:04am

Wed Jun 16, 8:04am

Wed Jun 16, 7:04am

Wed Jun 16, 6:04am

Wed Jun 16, 5:04am

Wed Jun 16, 4:04am

Wed Jun 16, 3:04am

Meta data:

ID: ebb0325f-9187-4792-b593-2d004cebb47a
Link: https://api.weather.gov/products/ebb0325f-9187-4792-b593-2d004cebb47a